Location: Bothwell
(42.3833°S, 147.0000°E)
Time: 18:57:08
(UTC+11:00)

N. Korean satellite - Visible Passes

Search period start: 01 December 2022 00:00
Search period end: 11 December 2022 00:00
Orbit: 421 x 453 km, 97.3° (Epoch: 30 November)

Date Brightness Start Highest point End Pass type
(mag) Time Alt. Az. Time Alt. Az. Time Alt. Az.
03 Dec 9.8 04:40:13 10° E 04:41:55 14° ESE 04:43:38 10° SE visible
05 Dec 9.5 04:54:07 10° ENE 04:56:36 20° ESE 04:59:05 10° SSE visible
08 Dec 10.3 04:32:04 10° ESE 04:32:32 10° ESE 04:33:00 10° ESE visible
10 Dec 9.6 04:44:53 10° ENE 04:46:51 15° ESE 04:48:50 10° SSE visible
